Location: Fredericksburg
(30.2750°N, 98.8720°W)
Time: 17:05:46
(UTC-05:00)

Daily predictions for brighter satellites

Satellite Brightness Start Highest point End
(mag) Time Altitude Azimuth Time Altitude Azimuth Time Altitude Azimuth
Cosmos 2360 4.3 20:59:27 10° NNW 21:05:09 66° ENE 21:10:48 10° SSE
Cosmos 1766 Rocket 3.7 21:04:10 10° S 21:08:35 85° W 21:13:00 10° N
Delta 2 Rocket 3.4 21:05:03 10° W 21:08:52 64° NNW 21:12:19 10° ENE
OAO 2 Rocket 4.1 21:05:05 10° SW 21:09:52 35° SSE 21:14:40 10° E
USA 186 1.0 21:15:45 10° SSE 21:18:04 58° ENE 21:20:26 10° N
Cosmos 540 Rocket 3.5 21:13:51 10° NNW 21:19:01 89° ENE 21:24:10 10° SSE
USA 229 DEB 3.7 21:13:13 10° SSW 21:20:07 84° ESE 21:27:06 10° NNE
USA 229 3.7 21:13:19 10° SSW 21:20:13 83° ESE 21:27:13 10° NNE
ASTRO E2 4.4 21:17:37 10° W 21:20:49 23° SSW 21:24:02 10° SSE
ALOS 2.3 21:22:23 10° S 21:27:03 84° W 21:31:44 10° NNW
Cosmos 371 Rocket 3.5 21:23:30 10° N 21:28:12 54° ENE 21:32:44 11° SSE
Cosmos 1515 Rocket 4.4 21:24:43 10° NNE 21:28:41 32° E 21:32:05 13° SE
Cosmos 2151 4.4 21:26:47 12° SE 21:29:17 19° E 21:32:17 10° NE
CZ-4 DEB 2.7 21:31:54 10° SSE 21:35:05 87° E 21:38:18 10° N
Cosmos 968 Rocket 4.3 21:31:15 10° SSW 21:36:18 55° WNW 21:41:25 10° N
Tiangong 1 1.0 21:34:39 10° SW 21:37:44 62° SE 21:40:47 10° ENE
Cosmos 2219 3.9 21:33:09 10° SSE 21:38:13 33° ESE 21:43:16 10° NE
H-2A R/B 1.1 21:34:45 10° WSW 21:38:40 34° S 21:39:29 23° ESE
NOSS 3-1 (A) 4.3 21:35:42 10° SSE 21:40:12 24° ESE 21:44:55 10° ENE
Cosmos 1441 Rocket 3.1 21:38:04 10° S 21:41:51 87° W 21:45:38 10° N
Cosmos 2266 Rocket 4.2 21:36:35 10° SSE 21:42:39 50° E 21:48:38 10° NNE
Delta 128 4.1 21:39:27 10° W 21:44:01 44° SSW 21:46:50 19° SE
OTV 4 2.6 21:42:17 10° S 21:42:58 13° S 21:42:58 13° S
SPOT 5 4.0 21:43:57 17° ESE 21:46:17 25° ENE 21:50:06 10° NNE
AVUM R/B 3.6 21:44:22 10° SW 21:46:28 43° WNW 21:48:44 10° N
Cosmos 2058 4.3 21:49:05 18° ESE 21:49:47 19° E 21:52:43 10° NE
Cosmos 1151 Rocket 3.9 21:46:05 10° NNE 21:49:55 31° E 21:51:50 22° ESE
Cosmos 1553 Rocket 4.0 21:45:28 10° N 21:51:52 85° E 21:58:09 10° S
Cosmos 2322 Rocket 2.2 21:49:32 10° NNW 21:55:09 82° WSW 21:59:50 15° SSE
YAOGAN 11 4.4 21:52:37 10° S 21:56:52 65° W 22:01:10 10° NNW
SJ-11-01 4.2 21:54:15 14° SSE 21:58:14 87° E 22:02:59 10° NNW
Cosmos 1437 3.1 21:58:21 31° SE 21:59:25 43° E 22:02:33 10° NNE
Envisat 3.2 21:56:35 21° SE 21:59:47 52° ENE 22:04:42 10° N
ATLAS 2AS CENTAUR R/B 4.4 22:03:26 15° E 22:03:26 15° E 22:06:35 10° ENE
ERS-1 Rocket 3.0 21:59:12 14° S 22:03:36 80° WSW 22:08:39 10° NNW
Cosmos 1980 Rocket 4.3 21:59:26 10° NW 22:03:44 23° W 22:08:03 10° SSW
Cosmos 2360 Rocket 2.9 21:59:26 10° N 22:04:41 38° ENE 22:07:20 25° ESE
SL-16 R/B 2.4 22:00:20 10° NNW 22:05:58 70° WSW 22:10:20 17° S
H-2A R/B 2.1 22:05:11 22° SSE 22:08:06 83° ENE 22:12:38 10° N
Cosmos 1908 3.2 22:04:59 10° N 22:08:51 62° E 22:10:23 34° SSE
GPS 2-04 Rocket1 3.4 22:10:56 10° W 22:15:07 45° SSW 22:16:24 34° SSE
Cosmos 1674 3.1 22:11:46 12° SSW 22:15:12 63° W 22:19:01 10° N
Cosmos 2298 Rocket 4.4 22:14:15 28° SSE 22:16:24 41° E 22:21:23 10° NNE
GPS 2-12 Rocket1 4.4 22:14:30 10° SW 22:17:47 22° S 22:17:47 22° S
DELTA 2 R/B (1) 4.4 22:18:50 10° NW 22:24:07 44° NNE 22:27:37 20° E
Cosmos 1939 Rocket 3.2 22:22:28 27° S 22:24:25 59° W 22:28:18 10° NNW
Nadezhda 2 Rocket 4.4 22:20:13 18° S 22:24:55 75° E 22:31:00 10° N
ATLAS CENTAUR R/B 3.7 22:22:18 10° WNW 22:25:12 18° WSW 22:27:54 10° SSW
Cosmos 2227 Rocket 3.8 22:27:04 17° E 22:27:04 17° E 22:29:27 10° NE
NOSS 3-1 (C) 3.2 22:21:19 10° SSW 22:27:02 86° ESE 22:33:16 10° NNE
Hubble Space Telescope 3.1 22:28:14 10° SSW 22:28:34 12° SSW 22:28:34 12° SSW
Cosmos 1300 3.8 22:29:05 10° NNE 22:31:57 29° ENE 22:31:57 29° ENE
Cosmos 405 3.3 22:29:32 10° NNW 22:33:07 65° W 22:33:50 50° SSW
YAOGAN 6 2.9 22:35:21 52° ENE 22:35:21 52° ENE 22:38:44 10° N
Terra 3.7 22:39:02 16° ENE 22:39:02 16° ENE 22:41:42 10° NNE
Cosmos 1437 Rocket 4.1 22:35:48 10° NNW 22:39:18 35° W 22:40:57 24° SW
H-2A R/B 3.6 22:39:08 21° ENE 22:39:39 21° ENE 22:43:35 10° NNE
CZ-4 SHROUD 3.6 22:40:51 61° WNW 22:40:51 61° WNW 22:43:41 10° NNW
Cosmos 2333 Rocket 4.2 22:39:19 10° NNE 22:42:03 13° ENE 22:43:13 13° ENE
Delta 2 Rocket 4.3 22:48:26 10° WNW 22:51:37 32° N 22:52:08 30° NNE
SPOT 1/Viking Rocket 3.5 22:50:46 58° SE 22:51:40 71° ENE 22:56:48 10° N
Cosmos 2297 Rocket 3.9 22:55:00 18° ENE 22:55:00 18° ENE 22:57:04 10° NE
Cosmos 1680 Rocket 3.5 22:48:14 10° NNW 22:53:29 78° WSW 22:54:42 54° S
COSMOS 2428 3.0 22:48:45 10° N 22:54:14 48° ENE 22:55:01 45° E
OAO 2 Rocket 3.4 22:49:12 10° WSW 22:54:32 80° NNW 22:57:14 30° ENE
CZ-4B R/B 3.8 22:49:52 10° N 22:55:04 66° WNW 22:57:51 27° SSW
MetOp-A 4.3 22:54:15 43° S 22:55:57 69° WSW 23:01:18 10° NNW
ARGOS 3.1 22:59:48 62° SE 23:00:34 72° ENE 23:05:57 10° N
Cosmos 1898 Rocket 3.5 22:59:20 44° SSW 23:00:59 80° WNW 23:06:12 10° NNE
Cosmos 2242 Rocket 4.4 22:58:12 10° N 23:01:39 39° NE 23:01:39 39° NE
CZ-4 R/B 3.9 22:58:39 10° N 23:03:34 77° WNW 23:04:32 56° SW
Cosmos 2150 Rocket 4.2 23:03:12 35° SSW 23:05:30 72° WNW 23:10:58 10° N
Cosmos 2219 Rocket 3.3 23:01:31 10° N 23:06:18 28° ENE 23:06:29 28° ENE
Sich 1 3.3 23:11:22 63° W 23:11:27 63° W 23:15:49 10° N
SL-08 RB Rocket 3.8 23:12:52 69° N 23:12:52 69° N 23:16:51 10° N
Cosmos 1633 Rocket 3.4 23:13:56 63° WNW 23:13:56 63° WNW 23:18:10 10° N
Tiangong 1 3.8 23:12:16 10° WNW 23:14:30 18° NNW 23:14:49 18° NNW
Cosmos 2237 4.0 23:10:08 10° NNW 23:15:53 83° ENE 23:16:16 77° SE
Cosmos 1726 3.4 23:15:15 10° N 23:17:46 40° NNW 23:17:46 40° NNW
Cosmos 1271 Rocket 4.4 23:24:46 10° N 23:26:53 31° N 23:26:53 31° N
DMSP B5D2-2 4.2 23:24:15 10° NNE 23:28:44 65° NE 23:28:44 65° NE
Cosmos 2082 3.7 23:34:33 75° NE 23:34:33 75° NE 23:39:48 10° NNE
Cosmos 2333 4.1 23:29:20 10° NNW 23:34:53 84° N 23:34:53 84° N
Cosmos 2237 Rocket 3.3 23:31:22 10° N 23:36:00 34° NE 23:36:00 34° NE
USA 32 4.4 23:37:16 10° N 23:42:08 60° WNW 23:42:08 60° WNW
Cosmos 2360 Rocket 3.9 23:44:10 10° NW 23:48:20 22° W 23:49:07 21° WSW
Meteor 2-10 4.4 23:44:26 10° N 23:49:41 71° NW 23:49:41 71° NW
